DMC3-FM2

Last updated on Mon Sep 21 2026 00:02:51 GMT+0000 (Coordinated Universal Time)

1 40716U 15032B 26263.58897394 .00000881 00000+0 10712-3 0 9991 2 40716 97.6363 126.5966 0007576 99.9388 260.2683 14.85832687604076
UTC large
Height (km)
Speed (km/s)
/
Latitude / Longitude
Inclination (degrees)
Orbital Period (minutes)
Azimuth
Elevation
Range (km)
Doppler Factor

Next 0 passes for location: London (51.5072 / 0.1276)

No passes found over London.
DMC3-FM2